ONEWEB-0670 (55829 NORAD) Tracking and Keplerian Element Data

This shows tracking and keplerian element data for the satellite.

Feedback or suggestion? Click here.




ElementValue
Catalog55829
NameONEWEB-0670
Epoch Orbit938
Epoch Day127.10100591
Epoch Year2023
RAAN173.4652
Inclination86.5083
Eccentricity0.0002371
Argument of Perigee109.1313
Mean Anonmoly251.0173
Mean Motion14.92946088
Decay Rate3.506E-05
L11 55829U 23029AK 23127.10100591 .00003506 00000+0 33528-3 0 9994
L22 55829 86.5083 173.4652 0002371 109.1313 251.0173 14.92946088 9380



Live tracking and technical data element details for ONEWEB-0670 (NORAD 55829). ONEWEB-0670 can be tracked NOW for your location showing map with azimuth and elevation plus other details from your city location.







IsCatalogInMostPopularTable: catalog: 55829, numindb: 6
Update: records affected: 1



GetName: 55829 ONEWEB-0670

Hit Count: updated at: Tue, 06 Jun 2023 01:55:39 GMT